Time,TemperatureF,DewpointF,PressureIn,WindDirection,WindDirectionDegrees,WindSpeedMPH,WindSpeedGustMPH,Humidity,HourlyPrecipIn,Conditions,Clouds,dailyrainin,SoftwareType,DateUTC
2013-02-01 00:09:00,22.9,18.0,29.84,SW,224,1.0,8.0,80,0.00,,,0.00,weatherlink.com 1.10,2013-02-01 05:09:00,
2013-02-01 00:25:00,22.7,17.0,29.84,WNW,295,3.0,7.0,80,0.00,,,0.00,weatherlink.com 1.10,2013-02-01 05:25:00,
2013-02-01 00:39:00,22.4,17.0,29.84,NW,307,1.0,8.0,81,0.00,,,0.00,weatherlink.com 1.10,2013-02-01 05:39:00,
2013-02-01 00:54:00,22.4,17.0,29.85,WNW,284,1.0,8.0,81,0.00,,,0.00,weatherlink.com 1.10,2013-02-01 05:54:00,
2013-02-01 01:09:00,22.4,17.0,29.84,WNW,288,3.0,6.0,80,0.00,,,0.00,weatherlink.com 1.10,2013-02-01 06:09:00,
2013-02-01 01:24:00,22.2,16.0,29.84,SW,236,3.0,9.0,78,0.00,,,0.00,weatherlink.com 1.10,2013-02-01 06:24:00,
2013-02-01 01:39:00,21.3,15.0,29.85,NW,304,8.0,13.0,78,0.00,,,0.00,weatherlink.com 1.10,2013-02-01 06:39:00,
2013-02-01 01:54:00,20.4,14.0,29.86,WSW,242,4.0,13.0,76,0.00,,,0.00,weatherlink.com 1.10,2013-02-01 06:54:00,
2013-02-01 02:09:00,20.2,12.0,29.87,WNW,300,4.0,13.0,71,0.00,,,0.00,weatherlink.com 1.10,2013-02-01 07:09:00,
2013-02-01 02:24:00,20.0,12.0,29.88,NNW,327,5.0,17.0,71,0.00,,,0.00,weatherlink.com 1.10,2013-02-01 07:24:00,
2013-02-01 02:39:00,20.0,12.0,29.88,NW,304,6.0,8.0,71,0.00,,,0.00,weatherlink.com 1.10,2013-02-01 07:39:00,
2013-02-01 02:54:00,19.8,12.0,29.87,West,268,2.0,11.0,73,0.00,,,0.00,weatherlink.com 1.10,2013-02-01 07:54:00,
2013-02-01 03:09:00,19.2,14.0,29.89,West,281,3.0,10.0,79,0.00,,,0.00,weatherlink.com 1.10,2013-02-01 08:09:00,
2013-02-01 03:24:00,18.7,12.0,29.90,WNW,285,2.0,14.0,76,0.00,,,0.00,weatherlink.com 1.10,2013-02-01 08:24:00,
2013-02-01 03:39:00,18.4,11.0,29.91,NNW,328,7.0,12.0,73,0.00,,,0.00,weatherlink.com 1.10,2013-02-01 08:39:00,
2013-02-01 03:54:00,18.4,12.0,29.92,West,270,3.0,8.0,75,0.00,,,0.00,weatherlink.com 1.10,2013-02-01 08:54:00,
2013-02-01 04:09:00,18.1,12.0,29.93,West,264,5.0,10.0,77,0.00,,,0.00,weatherlink.com 1.10,2013-02-01 09:09:00,
2013-02-01 04:24:00,17.6,8.0,29.94,WSW,251,8.0,12.0,67,0.00,,,0.00,weatherlink.com 1.10,2013-02-01 09:24:00,
2013-02-01 04:39:00,17.2,8.0,29.96,WSW,255,4.0,8.0,66,0.00,,,0.00,weatherlink.com 1.10,2013-02-01 09:39:00,
2013-02-01 04:54:00,17.1,8.0,29.97,NE,34,2.0,8.0,67,0.00,,,0.00,weatherlink.com 1.10,2013-02-01 09:54:00,
2013-02-01 05:09:00,16.6,7.0,29.98,SW,232,9.0,13.0,67,0.00,,,0.00,weatherlink.com 1.10,2013-02-01 10:09:00,
2013-02-01 05:25:00,16.4,8.0,29.99,West,259,9.0,11.0,68,0.00,,,0.00,weatherlink.com 1.10,2013-02-01 10:25:00,
2013-02-01 05:40:00,16.1,8.0,30.00,NW,324,6.0,12.0,70,0.00,,,0.00,weatherlink.com 1.10,2013-02-01 10:40:00,
2013-02-01 05:55:00,15.8,8.0,30.01,SW,218,6.0,11.0,72,0.00,,,0.00,weatherlink.com 1.10,2013-02-01 10:55:00,
2013-02-01 06:10:00,15.9,8.0,30.03,WNW,300,3.0,11.0,71,0.00,,,0.00,weatherlink.com 1.10,2013-02-01 11:10:00,
2013-02-01 06:25:00,15.9,8.0,30.04,West,260,1.0,9.0,71,0.00,,,0.00,weatherlink.com 1.10,2013-02-01 11:25:00,
2013-02-01 06:40:00,15.7,8.0,30.05,WNW,289,3.0,10.0,70,0.00,,,0.00,weatherlink.com 1.10,2013-02-01 11:40:00,
2013-02-01 06:55:00,15.6,8.0,30.06,West,276,7.0,11.0,71,0.00,,,0.00,weatherlink.com 1.10,2013-02-01 11:55:00,
2013-02-01 07:10:00,15.4,8.0,30.07,WSW,239,10.0,11.0,71,0.00,,,0.00,weatherlink.com 1.10,2013-02-01 12:10:00,
2013-02-01 07:25:00,15.4,8.0,30.08,WSW,253,4.0,11.0,72,0.00,,,0.00,weatherlink.com 1.10,2013-02-01 12:25:00,
2013-02-01 07:40:00,15.4,7.0,30.10,WNW,283,7.0,12.0,70,0.00,,,0.00,weatherlink.com 1.10,2013-02-01 12:40:00,
2013-02-01 07:55:00,15.2,7.0,30.11,West,274,2.0,17.0,70,0.00,,,0.00,weatherlink.com 1.10,2013-02-01 12:55:00,
2013-02-01 08:10:00,15.1,7.0,30.12,WSW,248,6.0,19.0,70,0.00,,,0.00,weatherlink.com 1.10,2013-02-01 13:10:00,
2013-02-01 08:25:00,15.2,7.0,30.13,West,269,4.0,10.0,71,0.00,,,0.00,weatherlink.com 1.10,2013-02-01 13:25:00,
2013-02-01 08:40:00,15.3,7.0,30.14,West,262,4.0,11.0,70,0.00,,,0.00,weatherlink.com 1.10,2013-02-01 13:40:00,
2013-02-01 08:55:00,15.1,7.0,30.15,WNW,282,3.0,14.0,70,0.00,,,0.00,weatherlink.com 1.10,2013-02-01 13:55:00,
2013-02-01 09:10:00,15.2,8.0,30.16,SW,219,6.0,12.0,74,0.00,,,0.00,weatherlink.com 1.10,2013-02-01 14:10:00,
2013-02-01 09:25:00,15.3,6.0,30.16,WSW,250,5.0,15.0,67,0.00,,,0.00,weatherlink.com 1.10,2013-02-01 14:25:00,
2013-02-01 09:40:00,15.4,7.0,30.17,WSW,257,2.0,13.0,68,0.00,,,0.00,weatherlink.com 1.10,2013-02-01 14:40:00,
2013-02-01 09:55:00,15.6,6.0,30.18,SSW,207,6.0,12.0,67,0.00,,,0.00,weatherlink.com 1.10,2013-02-01 14:55:00,
2013-02-01 10:10:00,15.5,6.0,30.19,WSW,257,6.0,16.0,67,0.00,,,0.00,weatherlink.com 1.10,2013-02-01 15:10:00,
2013-02-01 10:26:00,15.7,9.0,30.20,SSW,211,7.0,12.0,73,0.00,,,0.00,weatherlink.com 1.10,2013-02-01 15:26:00,
2013-02-01 10:41:00,16.1,9.0,30.20,WSW,249,8.0,13.0,72,0.00,,,0.00,weatherlink.com 1.10,2013-02-01 15:41:00,
2013-02-01 10:56:00,15.8,8.0,30.22,SW,231,2.0,12.0,71,0.00,,,0.00,weatherlink.com 1.10,2013-02-01 15:56:00,
2013-02-01 11:11:00,15.4,6.0,30.23,East,100,1.0,11.0,67,0.00,,,0.00,weatherlink.com 1.10,2013-02-01 16:11:00,
2013-02-01 11:26:00,15.6,6.0,30.23,SSW,210,5.0,11.0,67,0.00,,,0.00,weatherlink.com 1.10,2013-02-01 16:26:00,
2013-02-01 11:41:00,15.4,6.0,30.23,WNW,298,2.0,12.0,67,0.00,,,0.00,weatherlink.com 1.10,2013-02-01 16:41:00,
2013-02-01 11:56:00,15.6,7.0,30.24,West,266,10.0,12.0,68,0.00,,,0.00,weatherlink.com 1.10,2013-02-01 16:56:00,
2013-02-01 12:11:00,15.8,7.0,30.25,WNW,287,2.0,10.0,67,0.00,,,0.00,weatherlink.com 1.10,2013-02-01 17:11:00,
2013-02-01 12:26:00,16.0,5.0,30.25,WSW,243,7.0,14.0,63,0.00,,,0.00,weatherlink.com 1.10,2013-02-01 17:26:00,
2013-02-01 12:41:00,16.3,6.0,30.24,SW,221,5.0,11.0,65,0.00,,,0.00,weatherlink.com 1.10,2013-02-01 17:41:00,
2013-02-01 12:56:00,16.0,7.0,30.25,WSW,255,7.0,10.0,67,0.00,,,0.00,weatherlink.com 1.10,2013-02-01 17:56:00,
2013-02-01 13:11:00,16.6,7.0,30.24,WSW,246,4.0,10.0,66,0.00,,,0.00,weatherlink.com 1.10,2013-02-01 18:11:00,
2013-02-01 13:26:00,16.4,6.0,30.25,WSW,239,8.0,13.0,65,0.00,,,0.00,weatherlink.com 1.10,2013-02-01 18:26:00,
2013-02-01 13:41:00,17.5,6.0,30.25,West,274,5.0,14.0,62,0.00,,,0.00,weatherlink.com 1.10,2013-02-01 18:41:00,
2013-02-01 13:56:00,17.4,6.0,30.25,South,183,2.0,12.0,60,0.00,,,0.00,weatherlink.com 1.10,2013-02-01 18:56:00,
2013-02-01 14:11:00,17.1,6.0,30.26,WSW,249,0.0,9.0,61,0.00,,,0.00,weatherlink.com 1.10,2013-02-01 19:11:00,
2013-02-01 14:26:00,18.3,8.0,30.26,WNW,297,4.0,11.0,63,0.00,,,0.00,weatherlink.com 1.10,2013-02-01 19:26:00,
2013-02-01 14:41:00,17.5,6.0,30.27,SSE,155,9.0,10.0,62,0.00,,,0.00,weatherlink.com 1.10,2013-02-01 19:41:00,
2013-02-01 14:56:00,17.0,6.0,30.27,SW,232,10.0,12.0,63,0.00,,,0.00,weatherlink.com 1.10,2013-02-01 19:56:00,
2013-02-01 15:11:00,17.3,6.0,30.27,WSW,255,7.0,13.0,62,0.00,,,0.00,weatherlink.com 1.10,2013-02-01 20:11:00,
2013-02-01 15:26:00,17.8,7.0,30.28,West,259,4.0,11.0,63,0.00,,,0.00,weatherlink.com 1.10,2013-02-01 20:26:00,
2013-02-01 15:41:00,17.4,6.0,30.29,SSW,211,7.0,12.0,62,0.00,,,0.00,weatherlink.com 1.10,2013-02-01 20:41:00,
2013-02-01 15:56:00,16.8,6.0,30.30,WSW,250,4.0,11.0,63,0.00,,,0.00,weatherlink.com 1.10,2013-02-01 20:56:00,
2013-02-01 16:11:00,16.5,5.0,30.30,WNW,293,5.0,13.0,62,0.00,,,0.00,weatherlink.com 1.10,2013-02-01 21:11:00,
2013-02-01 16:26:00,16.3,6.0,30.30,SSW,202,6.0,11.0,63,0.00,,,0.00,weatherlink.com 1.10,2013-02-01 21:26:00,
2013-02-01 16:41:00,15.8,6.0,30.30,WSW,257,5.0,11.0,65,0.00,,,0.00,weatherlink.com 1.10,2013-02-01 21:41:00,
2013-02-01 16:56:00,15.7,6.0,30.31,WSW,243,6.0,10.0,65,0.00,,,0.00,weatherlink.com 1.10,2013-02-01 21:56:00,
2013-02-01 17:11:00,15.3,7.0,30.31,SW,214,3.0,10.0,69,0.00,,,0.00,weatherlink.com 1.10,2013-02-01 22:11:00,
2013-02-01 17:26:00,15.3,7.0,30.32,WSW,243,3.0,10.0,69,0.00,,,0.00,weatherlink.com 1.10,2013-02-01 22:26:00,
2013-02-01 17:41:00,15.3,6.0,30.32,SW,235,4.0,8.0,68,0.00,,,0.00,weatherlink.com 1.10,2013-02-01 22:41:00,
2013-02-01 17:56:00,15.0,5.0,30.32,SW,218,1.0,11.0,66,0.00,,,0.00,weatherlink.com 1.10,2013-02-01 22:56:00,
2013-02-01 18:11:00,15.3,5.0,30.33,SW,236,4.0,7.0,65,0.00,,,0.00,weatherlink.com 1.10,2013-02-01 23:11:00,
2013-02-01 18:26:00,15.1,5.0,30.34,SW,214,2.0,11.0,65,0.00,,,0.00,weatherlink.com 1.10,2013-02-01 23:26:00,
2013-02-01 18:41:00,15.0,5.0,30.34,WSW,250,5.0,11.0,64,0.00,,,0.00,weatherlink.com 1.10,2013-02-01 23:41:00,
2013-02-01 18:56:00,14.8,4.0,30.34,West,277,8.0,11.0,63,0.00,,,0.00,weatherlink.com 1.10,2013-02-01 23:56:00,
2013-02-01 19:11:00,14.7,5.0,30.35,SSW,207,5.0,11.0,64,0.00,,,0.00,weatherlink.com 1.10,2013-02-02 00:11:00,
2013-02-01 19:26:00,14.6,4.0,30.35,South,191,4.0,11.0,63,0.00,,,0.00,weatherlink.com 1.10,2013-02-02 00:26:00,
2013-02-01 19:42:00,14.3,3.0,30.36,West,269,3.0,12.0,62,0.00,,,0.00,weatherlink.com 1.10,2013-02-02 00:42:00,
2013-02-01 19:57:00,14.1,3.0,30.36,South,187,2.0,8.0,62,0.00,,,0.00,weatherlink.com 1.10,2013-02-02 00:57:00,
2013-02-01 20:12:00,13.9,3.0,30.36,WSW,243,6.0,11.0,61,0.00,,,0.00,weatherlink.com 1.10,2013-02-02 01:12:00,
2013-02-01 20:27:00,13.7,2.0,30.37,SW,235,4.0,9.0,61,0.00,,,0.00,weatherlink.com 1.10,2013-02-02 01:27:00,
2013-02-01 20:42:00,13.5,3.0,30.37,West,273,1.0,8.0,62,0.00,,,0.00,weatherlink.com 1.10,2013-02-02 01:42:00,
2013-02-01 20:57:00,13.2,3.0,30.37,WSW,250,3.0,8.0,63,0.00,,,0.00,weatherlink.com 1.10,2013-02-02 01:57:00,
2013-02-01 21:12:00,12.7,3.0,30.37,WSW,251,1.0,8.0,64,0.00,,,0.00,weatherlink.com 1.10,2013-02-02 02:12:00,
2013-02-01 21:27:00,12.4,3.0,30.38,West,266,2.0,11.0,66,0.00,,,0.00,weatherlink.com 1.10,2013-02-02 02:27:00,
2013-02-01 21:42:00,12.1,3.0,30.38,WSW,243,4.0,9.0,68,0.00,,,0.00,weatherlink.com 1.10,2013-02-02 02:42:00,
2013-02-01 21:57:00,11.8,3.0,30.38,South,183,5.0,9.0,68,0.00,,,0.00,weatherlink.com 1.10,2013-02-02 02:57:00,
2013-02-01 22:12:00,11.6,3.0,30.38,South,187,2.0,10.0,68,0.00,,,0.00,weatherlink.com 1.10,2013-02-02 03:12:00,
2013-02-01 22:27:00,11.4,3.0,30.39,SW,219,4.0,9.0,69,0.00,,,0.00,weatherlink.com 1.10,2013-02-02 03:27:00,
2013-02-01 22:42:00,11.3,3.0,30.38,WSW,244,5.0,10.0,70,0.00,,,0.00,weatherlink.com 1.10,2013-02-02 03:42:00,
2013-02-01 22:57:00,11.1,3.0,30.38,South,190,1.0,6.0,71,0.00,,,0.00,weatherlink.com 1.10,2013-02-02 03:57:00,
2013-02-01 23:12:00,10.9,4.0,30.38,South,187,1.0,8.0,72,0.00,,,0.00,weatherlink.com 1.10,2013-02-02 04:12:00,
2013-02-01 23:27:00,10.9,4.0,30.38,WSW,254,6.0,8.0,72,0.00,,,0.00,weatherlink.com 1.10,2013-02-02 04:27:00,
2013-02-01 23:42:00,10.8,4.0,30.38,West,264,1.0,7.0,73,0.00,,,0.00,weatherlink.com 1.10,2013-02-02 04:42:00,
2013-02-01 23:57:00,10.7,4.0,30.38,West,269,1.0,5.0,73,0.00,,,0.00,weatherlink.com 1.10,2013-02-02 04:57:00,